Year,Month,Day,Hour,Minute,Value (Times are PST for windgust in km/hr)
2015,12,07,00,00,19.30
2015,12,07,00,01,16.10
2015,12,07,00,02,19.30
2015,12,07,00,03,17.70
2015,12,07,00,04,16.10
2015,12,07,00,05,12.90
2015,12,07,00,06,9.60
2015,12,07,00,07,8.10
2015,12,07,00,08,9.60
2015,12,07,00,09,11.30
2015,12,07,00,10,11.30
2015,12,07,00,11,17.70
2015,12,07,00,12,11.30
2015,12,07,00,13,16.10
2015,12,07,00,14,16.10
2015,12,07,00,15,12.90
2015,12,07,00,16,22.50
2015,12,07,00,17,20.90
2015,12,07,00,18,17.70
2015,12,07,00,19,14.50
2015,12,07,00,20,17.70
2015,12,07,00,21,12.90
2015,12,07,00,22,12.90
2015,12,07,00,23,8.10
2015,12,07,00,24,16.10
2015,12,07,00,25,12.90
2015,12,07,00,26,11.30
2015,12,07,00,27,20.90
2015,12,07,00,28,14.50
2015,12,07,00,29,8.10
2015,12,07,00,30,8.10
2015,12,07,00,31,11.30
2015,12,07,00,32,11.30
2015,12,07,00,33,6.40
2015,12,07,00,34,11.30
2015,12,07,00,35,12.90
2015,12,07,00,36,12.90
2015,12,07,00,37,14.50
2015,12,07,00,38,11.30
2015,12,07,00,39,6.40
2015,12,07,00,40,4.80
2015,12,07,00,41,8.10
2015,12,07,00,42,8.10
2015,12,07,00,43,4.80
2015,12,07,00,44,6.40
2015,12,07,00,45,6.40
2015,12,07,00,46,8.10
2015,12,07,00,47,1.60
2015,12,07,00,48,14.50
2015,12,07,00,49,8.10
2015,12,07,00,50,11.30
2015,12,07,00,51,12.90
2015,12,07,00,52,19.30
2015,12,07,00,53,16.10
2015,12,07,00,54,17.70
2015,12,07,00,55,12.90
2015,12,07,00,56,16.10
2015,12,07,00,57,19.30
2015,12,07,00,58,14.50
2015,12,07,00,59,19.30
2015,12,07,01,00,12.90
2015,12,07,01,01,14.50
2015,12,07,01,02,14.50
2015,12,07,01,03,22.50
2015,12,07,01,04,16.10
2015,12,07,01,05,17.70
2015,12,07,01,06,20.90
2015,12,07,01,07,20.90
2015,12,07,01,08,19.30
2015,12,07,01,09,16.10
2015,12,07,01,10,30.60
2015,12,07,01,11,29.00
2015,12,07,01,12,22.50
2015,12,07,01,13,14.50
2015,12,07,01,14,14.50
2015,12,07,01,15,33.80
2015,12,07,01,16,29.00
2015,12,07,01,17,30.60
2015,12,07,01,18,29.00
2015,12,07,01,19,40.20
2015,12,07,01,20,37.00
2015,12,07,01,21,22.50
2015,12,07,01,22,17.70
2015,12,07,01,23,25.70
2015,12,07,01,24,25.70
2015,12,07,01,25,16.10
2015,12,07,01,26,22.50
2015,12,07,01,27,29.00
2015,12,07,01,28,24.20
2015,12,07,01,29,29.00
2015,12,07,01,30,27.40
2015,12,07,01,31,29.00
2015,12,07,01,32,20.90
2015,12,07,01,33,25.70
2015,12,07,01,34,22.50
2015,12,07,01,35,32.20
2015,12,07,01,36,22.50
2015,12,07,01,37,24.20
2015,12,07,01,38,32.20
2015,12,07,01,39,25.70
2015,12,07,01,40,24.20
2015,12,07,01,41,20.90
2015,12,07,01,42,25.70
2015,12,07,01,43,22.50
2015,12,07,01,44,17.70
2015,12,07,01,45,25.70
2015,12,07,01,46,22.50
2015,12,07,01,47,30.60
2015,12,07,01,48,29.00
2015,12,07,01,49,25.70
2015,12,07,01,50,24.20
2015,12,07,01,51,19.30
2015,12,07,01,52,20.90
2015,12,07,01,53,17.70
2015,12,07,01,54,22.50
2015,12,07,01,55,19.30
2015,12,07,01,56,14.50
2015,12,07,01,57,11.30
2015,12,07,01,58,11.30
2015,12,07,01,59,8.10
2015,12,07,02,00,8.10
2015,12,07,02,01,12.90
2015,12,07,02,02,8.10
2015,12,07,02,03,8.10
2015,12,07,02,04,16.10
2015,12,07,02,05,14.50
2015,12,07,02,06,11.30
2015,12,07,02,07,9.60
2015,12,07,02,08,1.60
2015,12,07,02,09,1.60
2015,12,07,02,10,1.60
2015,12,07,02,11,1.60
2015,12,07,02,13,1.60
2015,12,07,02,15,4.80
2015,12,07,02,16,4.80
2015,12,07,02,17,3.20
2015,12,07,02,18,1.60
2015,12,07,02,19,3.20
2015,12,07,02,20,3.20
2015,12,07,02,21,1.60
2015,12,07,02,22,1.60
2015,12,07,02,23,1.60
2015,12,07,02,24,3.20
2015,12,07,02,25,4.80
2015,12,07,02,26,4.80
2015,12,07,02,27,4.80
2015,12,07,02,28,6.40
2015,12,07,02,29,4.80
2015,12,07,02,30,6.40
2015,12,07,02,31,4.80
2015,12,07,02,32,6.40
2015,12,07,02,33,4.80
2015,12,07,02,34,3.20
2015,12,07,02,35,1.60
2015,12,07,02,36,3.20
2015,12,07,02,37,3.20
2015,12,07,02,38,1.60
2015,12,07,02,39,3.20
2015,12,07,02,40,3.20
2015,12,07,02,41,1.60
2015,12,07,02,42,3.20
2015,12,07,02,43,1.60
2015,12,07,02,44,3.20
2015,12,07,02,45,1.60
2015,12,07,02,49,1.60
2015,12,07,02,50,3.20
2015,12,07,02,51,3.20
2015,12,07,02,52,3.20
2015,12,07,02,53,1.60
2015,12,07,02,54,1.60
2015,12,07,02,55,1.60
2015,12,07,02,56,1.60
2015,12,07,02,57,1.60
2015,12,07,02,58,1.60
2015,12,07,03,00,3.20
2015,12,07,03,01,1.60
2015,12,07,03,02,3.20
2015,12,07,03,03,1.60
2015,12,07,03,04,3.20
2015,12,07,03,05,6.40
2015,12,07,03,06,6.40
2015,12,07,03,07,4.80
2015,12,07,03,08,4.80
2015,12,07,03,09,3.20
2015,12,07,03,11,1.60
2015,12,07,03,12,3.20
2015,12,07,03,13,1.60
2015,12,07,03,15,3.20
2015,12,07,03,16,4.80
2015,12,07,03,17,4.80
2015,12,07,03,18,4.80
2015,12,07,03,19,1.60
2015,12,07,03,20,1.60
2015,12,07,03,21,1.60
2015,12,07,03,22,1.60
2015,12,07,03,23,1.60
2015,12,07,03,28,1.60
2015,12,07,03,29,1.60
2015,12,07,03,30,1.60
2015,12,07,03,31,1.60
2015,12,07,03,32,1.60
2015,12,07,03,34,1.60
2015,12,07,03,35,1.60
2015,12,07,03,38,1.60
2015,12,07,03,39,1.60
2015,12,07,03,40,1.60
2015,12,07,03,45,1.60
2015,12,07,03,47,1.60
2015,12,07,03,55,1.60
2015,12,07,03,58,1.60
2015,12,07,03,59,3.20
2015,12,07,04,00,3.20
2015,12,07,04,01,1.60
2015,12,07,04,02,1.60
2015,12,07,04,06,1.60
2015,12,07,04,07,1.60
2015,12,07,04,08,1.60
2015,12,07,04,09,1.60
2015,12,07,04,17,1.60
2015,12,07,04,18,3.20
2015,12,07,04,19,3.20
2015,12,07,04,20,1.60
2015,12,07,04,25,3.20
2015,12,07,04,26,4.80
2015,12,07,04,27,4.80
2015,12,07,04,28,4.80
2015,12,07,04,29,4.80
2015,12,07,04,30,3.20
2015,12,07,04,31,6.40
2015,12,07,04,32,4.80
2015,12,07,04,33,3.20
2015,12,07,04,34,3.20
2015,12,07,04,35,4.80
2015,12,07,04,36,1.60
2015,12,07,04,37,1.60
2015,12,07,04,40,1.60
2015,12,07,04,41,3.20
2015,12,07,04,42,3.20
2015,12,07,04,43,3.20
2015,12,07,04,44,3.20
2015,12,07,04,45,3.20
2015,12,07,04,46,3.20
2015,12,07,04,47,3.20
2015,12,07,04,48,3.20
2015,12,07,04,49,3.20
2015,12,07,04,50,1.60
2015,12,07,04,51,1.60
2015,12,07,04,52,1.60
2015,12,07,05,03,1.60
2015,12,07,05,04,3.20
2015,12,07,05,05,3.20
2015,12,07,05,06,1.60
2015,12,07,05,07,1.60
2015,12,07,05,08,1.60
2015,12,07,05,09,3.20
2015,12,07,05,10,3.20
2015,12,07,05,11,3.20
2015,12,07,05,12,3.20
2015,12,07,05,13,3.20
2015,12,07,05,14,3.20
2015,12,07,05,15,3.20
2015,12,07,05,16,1.60
2015,12,07,05,17,1.60
2015,12,07,05,19,1.60
2015,12,07,05,21,1.60
2015,12,07,05,34,1.60
2015,12,07,05,35,3.20
2015,12,07,05,36,1.60
2015,12,07,05,37,1.60
2015,12,07,05,38,1.60
2015,12,07,05,39,1.60
2015,12,07,05,48,1.60
2015,12,07,05,51,1.60
2015,12,07,05,52,1.60
2015,12,07,05,53,3.20
2015,12,07,05,54,3.20
2015,12,07,05,55,3.20
2015,12,07,05,56,3.20
2015,12,07,05,57,1.60
2015,12,07,05,58,1.60
2015,12,07,06,05,3.20
2015,12,07,06,06,3.20
2015,12,07,06,07,1.60
2015,12,07,06,08,3.20
2015,12,07,06,09,3.20
2015,12,07,06,10,3.20
2015,12,07,06,11,3.20
2015,12,07,06,12,1.60
2015,12,07,06,27,1.60
2015,12,07,06,28,1.60
2015,12,07,06,59,1.60
2015,12,07,07,00,1.60
2015,12,07,07,01,1.60
2015,12,07,07,02,1.60
2015,12,07,07,03,1.60
2015,12,07,07,04,1.60
2015,12,07,08,27,1.60
2015,12,07,08,28,1.60
2015,12,07,08,29,1.60
2015,12,07,08,30,3.20
2015,12,07,08,31,4.80
2015,12,07,08,32,4.80
2015,12,07,08,33,4.80
2015,12,07,08,34,4.80
2015,12,07,08,35,4.80
2015,12,07,08,36,3.20
2015,12,07,08,37,1.60
2015,12,07,08,38,3.20
2015,12,07,08,39,3.20
2015,12,07,08,40,4.80
2015,12,07,08,41,4.80
2015,12,07,08,42,4.80
2015,12,07,08,43,4.80
2015,12,07,08,44,1.60
2015,12,07,09,00,1.60
2015,12,07,09,01,1.60
2015,12,07,09,02,1.60
2015,12,07,09,03,3.20
2015,12,07,09,04,3.20
2015,12,07,09,05,3.20
2015,12,07,09,06,3.20
2015,12,07,09,07,3.20
2015,12,07,09,08,1.60
2015,12,07,09,10,1.60
2015,12,07,09,12,1.60
2015,12,07,09,13,1.60
2015,12,07,09,14,3.20
2015,12,07,09,15,4.80
2015,12,07,09,16,4.80
2015,12,07,09,17,4.80
2015,12,07,09,18,4.80
2015,12,07,09,19,4.80
2015,12,07,09,20,4.80
2015,12,07,09,21,6.40
2015,12,07,09,22,6.40
2015,12,07,09,23,4.80
2015,12,07,09,24,6.40
2015,12,07,09,25,6.40
2015,12,07,09,26,3.20
2015,12,07,09,27,6.40
2015,12,07,09,28,6.40
2015,12,07,09,29,6.40
2015,12,07,09,30,4.80
2015,12,07,09,31,6.40
2015,12,07,09,32,4.80
2015,12,07,09,33,4.80
2015,12,07,09,34,4.80
2015,12,07,09,35,4.80
2015,12,07,09,36,6.40
2015,12,07,09,37,4.80
2015,12,07,09,38,4.80
2015,12,07,09,39,3.20
2015,12,07,09,40,4.80
2015,12,07,09,41,6.40
2015,12,07,09,42,4.80
2015,12,07,09,43,6.40
2015,12,07,09,44,8.10
2015,12,07,09,45,8.10
2015,12,07,09,46,6.40
2015,12,07,09,47,6.40
2015,12,07,09,48,3.20
2015,12,07,09,49,6.40
2015,12,07,09,50,4.80
2015,12,07,09,51,4.80
2015,12,07,09,52,4.80
2015,12,07,09,53,4.80
2015,12,07,09,54,4.80
2015,12,07,09,55,4.80
2015,12,07,09,56,4.80
2015,12,07,09,57,6.40
2015,12,07,09,58,8.10
2015,12,07,09,59,8.10
2015,12,07,10,00,8.10
2015,12,07,10,01,9.60
2015,12,07,10,02,8.10
2015,12,07,10,03,8.10
2015,12,07,10,04,9.60
2015,12,07,10,05,8.10
2015,12,07,10,06,8.10
2015,12,07,10,07,8.10
2015,12,07,10,08,9.60
2015,12,07,10,09,8.10
2015,12,07,10,10,9.60
2015,12,07,10,11,6.40
2015,12,07,10,12,6.40
2015,12,07,10,13,4.80
2015,12,07,10,14,4.80
2015,12,07,10,15,4.80
2015,12,07,10,16,3.20
2015,12,07,10,17,4.80
2015,12,07,10,18,4.80
2015,12,07,10,19,3.20
2015,12,07,10,20,3.20
2015,12,07,10,21,4.80
2015,12,07,10,22,8.10
2015,12,07,10,23,4.80
2015,12,07,10,24,6.40
2015,12,07,10,25,8.10
2015,12,07,10,26,4.80
2015,12,07,10,27,4.80
2015,12,07,10,28,4.80
2015,12,07,10,29,4.80
2015,12,07,10,30,4.80
2015,12,07,10,31,3.20
2015,12,07,10,32,3.20
2015,12,07,10,33,3.20
2015,12,07,10,34,3.20
2015,12,07,10,35,3.20
2015,12,07,10,36,3.20
2015,12,07,10,37,3.20
2015,12,07,10,38,4.80
2015,12,07,10,39,3.20
2015,12,07,10,40,3.20
2015,12,07,10,41,3.20
2015,12,07,10,42,6.40
2015,12,07,10,43,6.40
2015,12,07,10,44,6.40
2015,12,07,10,45,6.40
2015,12,07,10,46,4.80
2015,12,07,10,47,4.80
2015,12,07,10,48,6.40
2015,12,07,10,49,4.80
2015,12,07,10,50,4.80
2015,12,07,10,51,6.40
2015,12,07,10,52,6.40
2015,12,07,10,53,4.80
2015,12,07,10,54,3.20
2015,12,07,10,55,4.80
2015,12,07,10,56,6.40
2015,12,07,10,57,8.10
2015,12,07,10,58,8.10
2015,12,07,10,59,6.40
2015,12,07,11,00,6.40
2015,12,07,11,01,4.80
2015,12,07,11,02,4.80
2015,12,07,11,03,4.80
2015,12,07,11,04,4.80
2015,12,07,11,05,4.80
2015,12,07,11,06,4.80
2015,12,07,11,07,4.80
2015,12,07,11,08,6.40
2015,12,07,11,09,6.40
2015,12,07,11,10,3.20
2015,12,07,11,11,6.40
2015,12,07,11,12,4.80
2015,12,07,11,13,3.20
2015,12,07,11,14,6.40
2015,12,07,11,15,6.40
2015,12,07,11,16,6.40
2015,12,07,11,17,4.80
2015,12,07,11,18,4.80
2015,12,07,11,19,4.80
2015,12,07,11,20,3.20
2015,12,07,11,21,3.20
2015,12,07,11,22,3.20
2015,12,07,11,23,3.20
2015,12,07,11,24,1.60
2015,12,07,11,25,4.80
2015,12,07,11,26,4.80
2015,12,07,11,27,6.40
2015,12,07,11,28,3.20
2015,12,07,11,29,3.20
2015,12,07,11,30,4.80
2015,12,07,11,31,4.80
2015,12,07,11,32,3.20
2015,12,07,11,33,3.20
2015,12,07,11,34,4.80
2015,12,07,11,35,4.80
2015,12,07,11,36,4.80
2015,12,07,11,37,4.80
2015,12,07,11,38,6.40
2015,12,07,11,39,4.80
2015,12,07,11,40,4.80
2015,12,07,11,41,4.80
2015,12,07,11,42,4.80
2015,12,07,11,43,4.80
2015,12,07,11,44,4.80
2015,12,07,11,45,3.20
2015,12,07,11,46,4.80
2015,12,07,11,47,3.20
2015,12,07,11,48,4.80
2015,12,07,11,49,4.80
2015,12,07,11,50,4.80
2015,12,07,11,51,4.80
2015,12,07,11,52,4.80
2015,12,07,11,53,4.80
2015,12,07,11,54,4.80
2015,12,07,11,55,4.80
2015,12,07,11,56,1.60
2015,12,07,11,57,1.60
2015,12,07,11,58,1.60
2015,12,07,12,02,1.60
2015,12,07,12,03,1.60
2015,12,07,12,04,1.60
2015,12,07,12,05,1.60
2015,12,07,12,06,1.60
2015,12,07,12,07,3.20
2015,12,07,12,08,3.20
2015,12,07,12,09,1.60
2015,12,07,12,10,1.60
2015,12,07,12,11,3.20
2015,12,07,12,12,4.80
2015,12,07,12,13,4.80
2015,12,07,12,14,3.20
2015,12,07,12,15,3.20
2015,12,07,12,16,3.20
2015,12,07,12,17,3.20
2015,12,07,12,18,4.80
2015,12,07,12,19,3.20
2015,12,07,12,20,3.20
2015,12,07,12,21,4.80
2015,12,07,12,22,4.80
2015,12,07,12,23,3.20
2015,12,07,12,24,4.80
2015,12,07,12,25,3.20
2015,12,07,12,26,3.20
2015,12,07,12,27,3.20
2015,12,07,12,28,4.80
2015,12,07,12,29,4.80
2015,12,07,12,30,4.80
2015,12,07,12,31,6.40
2015,12,07,12,32,6.40
2015,12,07,12,33,4.80
2015,12,07,12,34,4.80
2015,12,07,12,35,3.20
2015,12,07,12,38,1.60
2015,12,07,12,39,1.60
2015,12,07,12,40,1.60
2015,12,07,12,41,3.20
2015,12,07,12,42,4.80
2015,12,07,12,43,3.20
2015,12,07,12,44,4.80
2015,12,07,12,45,4.80
2015,12,07,12,46,3.20
2015,12,07,12,47,3.20
2015,12,07,12,48,4.80
2015,12,07,12,49,6.40
2015,12,07,12,50,4.80
2015,12,07,12,51,4.80
2015,12,07,12,52,3.20
2015,12,07,12,53,3.20
2015,12,07,12,54,3.20
2015,12,07,12,55,3.20
2015,12,07,13,00,1.60
2015,12,07,13,01,3.20
2015,12,07,13,02,3.20
2015,12,07,13,03,1.60
2015,12,07,13,04,1.60
2015,12,07,13,11,1.60
2015,12,07,13,12,1.60
2015,12,07,13,13,1.60
2015,12,07,13,14,3.20
2015,12,07,13,15,3.20
2015,12,07,13,16,1.60
2015,12,07,13,17,3.20
2015,12,07,13,18,4.80
2015,12,07,13,19,4.80
2015,12,07,13,20,4.80
2015,12,07,13,21,4.80
2015,12,07,13,22,4.80
2015,12,07,13,23,6.40
2015,12,07,13,24,6.40
2015,12,07,13,25,6.40
2015,12,07,13,26,4.80
2015,12,07,13,27,4.80
2015,12,07,13,28,4.80
2015,12,07,13,29,4.80
2015,12,07,13,30,4.80
2015,12,07,13,31,8.10
2015,12,07,13,32,4.80
2015,12,07,13,33,4.80
2015,12,07,13,34,1.60
2015,12,07,13,35,1.60
2015,12,07,13,36,1.60
2015,12,07,13,37,1.60
2015,12,07,13,38,1.60
2015,12,07,13,39,1.60
2015,12,07,13,40,1.60
2015,12,07,13,41,1.60
2015,12,07,13,42,1.60
2015,12,07,13,43,1.60
2015,12,07,13,44,1.60
2015,12,07,13,46,1.60
2015,12,07,13,47,1.60
2015,12,07,13,48,3.20
2015,12,07,13,49,8.10
2015,12,07,13,50,4.80
2015,12,07,13,51,3.20
2015,12,07,13,52,3.20
2015,12,07,13,53,3.20
2015,12,07,13,54,1.60
2015,12,07,13,55,1.60
2015,12,07,13,56,1.60
2015,12,07,13,57,1.60
2015,12,07,13,58,1.60
2015,12,07,13,59,1.60
2015,12,07,14,00,1.60
2015,12,07,14,01,1.60
2015,12,07,14,02,3.20
2015,12,07,14,03,3.20
2015,12,07,14,04,3.20
2015,12,07,14,05,3.20
2015,12,07,14,06,1.60
2015,12,07,14,17,1.60
2015,12,07,14,18,1.60
2015,12,07,14,19,1.60
2015,12,07,14,20,1.60
2015,12,07,14,21,1.60
2015,12,07,14,22,1.60
2015,12,07,14,23,3.20
2015,12,07,14,24,4.80
2015,12,07,14,25,4.80
2015,12,07,14,26,4.80
2015,12,07,14,27,4.80
2015,12,07,14,28,4.80
2015,12,07,14,29,4.80
2015,12,07,14,30,1.60
2015,12,07,14,31,3.20
2015,12,07,14,32,1.60
2015,12,07,14,33,3.20
2015,12,07,14,34,1.60
2015,12,07,14,35,1.60
2015,12,07,14,36,1.60
2015,12,07,14,37,1.60
2015,12,07,14,38,1.60
2015,12,07,14,40,1.60
2015,12,07,14,54,3.20
2015,12,07,14,55,3.20
2015,12,07,14,56,3.20
2015,12,07,14,57,3.20
2015,12,07,14,58,1.60
2015,12,07,14,59,1.60
2015,12,07,15,11,1.60
2015,12,07,15,12,1.60
2015,12,07,15,13,3.20
2015,12,07,15,14,1.60
2015,12,07,15,15,1.60
2015,12,07,15,16,1.60
2015,12,07,15,17,3.20
2015,12,07,15,18,3.20
2015,12,07,15,19,3.20
2015,12,07,15,20,3.20
2015,12,07,15,21,3.20
2015,12,07,15,22,1.60
2015,12,07,15,23,1.60
2015,12,07,15,24,1.60
2015,12,07,15,25,1.60
2015,12,07,15,33,1.60
2015,12,07,15,48,1.60
2015,12,07,15,49,1.60
2015,12,07,15,50,1.60
2015,12,07,15,51,3.20
2015,12,07,15,52,1.60
2015,12,07,15,53,1.60
2015,12,07,15,59,1.60
2015,12,07,16,00,1.60
2015,12,07,16,01,1.60
2015,12,07,16,02,1.60
2015,12,07,16,03,1.60
2015,12,07,16,04,1.60
2015,12,07,16,13,1.60
2015,12,07,16,14,3.20
2015,12,07,16,15,4.80
2015,12,07,16,16,4.80
2015,12,07,16,17,4.80
2015,12,07,16,18,4.80
2015,12,07,16,19,4.80
2015,12,07,16,20,3.20
2015,12,07,16,21,8.10
2015,12,07,16,22,4.80
2015,12,07,16,23,4.80
2015,12,07,16,24,3.20
2015,12,07,16,25,1.60
2015,12,07,16,26,1.60
2015,12,07,16,27,3.20
2015,12,07,16,28,4.80
2015,12,07,16,29,4.80
2015,12,07,16,30,4.80
2015,12,07,16,31,3.20
2015,12,07,16,32,1.60
2015,12,07,16,33,1.60
2015,12,07,16,34,4.80
2015,12,07,16,35,3.20
2015,12,07,16,36,3.20
2015,12,07,16,37,3.20
2015,12,07,16,38,1.60
2015,12,07,16,39,3.20
2015,12,07,16,40,4.80
2015,12,07,16,41,4.80
2015,12,07,16,42,8.10
2015,12,07,16,43,4.80
2015,12,07,16,44,4.80
2015,12,07,16,45,3.20
2015,12,07,16,46,4.80
2015,12,07,16,47,4.80
2015,12,07,16,48,4.80
2015,12,07,16,49,3.20
2015,12,07,16,50,3.20
2015,12,07,16,54,1.60
2015,12,07,16,55,1.60
2015,12,07,17,08,1.60
2015,12,07,17,09,1.60
2015,12,07,17,10,1.60
2015,12,07,17,11,1.60
2015,12,07,17,35,1.60
2015,12,07,17,36,3.20
2015,12,07,17,37,1.60
2015,12,07,17,38,1.60
2015,12,07,17,39,1.60
2015,12,07,17,40,1.60
2015,12,07,17,41,1.60
2015,12,07,17,42,1.60
2015,12,07,17,43,1.60
2015,12,07,17,44,1.60
2015,12,07,17,45,1.60
2015,12,07,17,46,1.60
2015,12,07,17,47,1.60
2015,12,07,18,34,1.60
2015,12,07,18,35,1.60
2015,12,07,18,36,1.60
2015,12,07,18,40,1.60
2015,12,07,18,41,1.60
2015,12,07,18,42,1.60
2015,12,07,18,43,3.20
2015,12,07,18,44,4.80
2015,12,07,18,45,1.60
2015,12,07,18,46,1.60
2015,12,07,18,58,1.60
2015,12,07,19,09,3.20
2015,12,07,19,10,3.20
2015,12,07,19,11,3.20
2015,12,07,19,12,1.60
2015,12,07,19,14,1.60
2015,12,07,19,15,1.60
2015,12,07,19,16,1.60
2015,12,07,19,17,1.60
2015,12,07,19,23,1.60
2015,12,07,19,27,1.60
2015,12,07,19,28,1.60
2015,12,07,19,36,1.60
2015,12,07,19,40,1.60
2015,12,07,19,41,3.20
2015,12,07,19,42,3.20
2015,12,07,19,43,3.20
2015,12,07,19,44,1.60
2015,12,07,19,45,1.60
2015,12,07,19,54,3.20
2015,12,07,19,55,3.20
2015,12,07,19,56,3.20
2015,12,07,19,57,3.20
2015,12,07,20,01,1.60
2015,12,07,20,14,1.60
2015,12,07,20,15,1.60
2015,12,07,20,20,1.60
2015,12,07,20,21,3.20
2015,12,07,20,22,1.60
2015,12,07,20,23,1.60
2015,12,07,20,28,1.60
2015,12,07,20,29,3.20
2015,12,07,20,30,3.20
2015,12,07,20,31,1.60
2015,12,07,20,36,1.60
2015,12,07,20,37,1.60
2015,12,07,20,38,1.60
2015,12,07,20,39,1.60
2015,12,07,20,40,1.60
2015,12,07,20,44,1.60
2015,12,07,20,45,3.20
2015,12,07,20,46,3.20
2015,12,07,20,47,4.80
2015,12,07,20,48,8.10
2015,12,07,20,49,4.80
2015,12,07,20,50,4.80
2015,12,07,20,51,4.80
2015,12,07,20,52,3.20
2015,12,07,20,53,1.60
2015,12,07,20,54,1.60
2015,12,07,20,55,1.60
2015,12,07,20,56,1.60
2015,12,07,21,00,1.60
2015,12,07,21,01,3.20
2015,12,07,21,02,3.20
2015,12,07,21,03,4.80
2015,12,07,21,04,4.80
2015,12,07,21,05,3.20
2015,12,07,21,06,1.60
2015,12,07,21,13,1.60
2015,12,07,21,15,1.60
2015,12,07,21,31,1.60
2015,12,07,21,33,1.60
2015,12,07,21,35,1.60
2015,12,07,21,36,1.60
2015,12,07,21,37,1.60
2015,12,07,21,38,1.60
2015,12,07,21,44,1.60
2015,12,07,21,45,3.20
2015,12,07,21,46,3.20
2015,12,07,21,47,3.20
2015,12,07,21,48,1.60
2015,12,07,21,49,1.60
2015,12,07,21,50,1.60
2015,12,07,21,51,1.60
2015,12,07,22,06,3.20
2015,12,07,22,07,1.60
2015,12,07,22,15,1.60
2015,12,07,22,16,1.60
2015,12,07,22,22,3.20
2015,12,07,22,23,3.20
2015,12,07,22,24,4.80
2015,12,07,22,25,3.20
2015,12,07,22,26,3.20
2015,12,07,22,27,1.60
2015,12,07,22,28,1.60
2015,12,07,22,29,1.60
2015,12,07,22,30,4.80
2015,12,07,22,31,4.80
2015,12,07,22,32,3.20
2015,12,07,22,33,1.60
2015,12,07,22,36,1.60
2015,12,07,22,37,4.80
2015,12,07,22,38,3.20
2015,12,07,22,39,1.60
2015,12,07,22,47,1.60
2015,12,07,22,48,1.60
2015,12,07,22,53,3.20
2015,12,07,22,54,3.20
2015,12,07,22,55,4.80
2015,12,07,22,56,3.20
2015,12,07,22,57,3.20
2015,12,07,22,58,4.80
2015,12,07,22,59,4.80
2015,12,07,23,00,3.20
2015,12,07,23,02,1.60
2015,12,07,23,03,4.80
2015,12,07,23,04,6.40
2015,12,07,23,05,4.80
2015,12,07,23,06,3.20
2015,12,07,23,07,4.80
2015,12,07,23,08,3.20
2015,12,07,23,09,4.80
2015,12,07,23,10,1.60
2015,12,07,23,11,1.60
2015,12,07,23,12,4.80
2015,12,07,23,13,3.20
2015,12,07,23,14,4.80
2015,12,07,23,15,4.80
2015,12,07,23,16,4.80
2015,12,07,23,17,4.80
2015,12,07,23,18,1.60
2015,12,07,23,19,1.60
2015,12,07,23,20,1.60
2015,12,07,23,21,4.80
2015,12,07,23,22,4.80
2015,12,07,23,23,4.80
2015,12,07,23,24,3.20
2015,12,07,23,25,1.60
2015,12,07,23,26,1.60
2015,12,07,23,27,3.20
2015,12,07,23,28,11.30
2015,12,07,23,29,12.90
2015,12,07,23,30,9.60
2015,12,07,23,31,8.10
2015,12,07,23,32,4.80
2015,12,07,23,33,6.40
2015,12,07,23,34,14.50
2015,12,07,23,35,14.50
2015,12,07,23,36,6.40
2015,12,07,23,37,3.20
2015,12,07,23,38,1.60
2015,12,07,23,39,8.10
2015,12,07,23,40,8.10
2015,12,07,23,41,11.30
2015,12,07,23,42,12.90
2015,12,07,23,43,12.90
2015,12,07,23,44,3.20
2015,12,07,23,45,9.60
2015,12,07,23,46,9.60
2015,12,07,23,47,8.10
2015,12,07,23,48,9.60
2015,12,07,23,49,9.60
2015,12,07,23,50,8.10
2015,12,07,23,51,9.60
2015,12,07,23,52,8.10
2015,12,07,23,53,8.10
2015,12,07,23,54,6.40
2015,12,07,23,55,6.40
2015,12,07,23,56,6.40
2015,12,07,23,57,6.40
2015,12,07,23,58,6.40
2015,12,07,23,59,8.10
